www.pogodaiklimat.ru

Погода и климат >> Архив погоды >> Мексика >> Nueva Casas Grandes


ПОГОДА в Nueva Casas Grandes

  • Прогноз погоды в Nueva Casas Grandes
  • Монитор погоды в Nueva Casas Grandes
  • Климат города

АРХИВ ПОГОДЫ в Nueva Casas Grandes

Время (UTC), дата Ветер
(напр.,м/с)
 
Видим.   Явления Облачность Т
(С)
Тd
(С)
f
(%)
Тe
(С)
Тes
(С)
Комфортность P
(гПа)
Po
(гПа)
Тmin
(С)
Tmax
(С)
R
(мм)
R24
(мм)
S
(см)
15 9.07 штиль 0 20 км слабая морось 10/10 600 м
[St]
+18.8 +16.2 85 +20 +20 1007.1 851.6 0.0
18 9.07 штиль 0 18 км в посл. час дождь {морось} 9/5 100 м
[Sc As trans]
+18.2 +16.7 91 +19 +26 1008.3 852.3 2
21 9.07 В 2 20 км 9/6 960 м
[Sc Ac As]
+24.8 +17.1 62 +29 +32 душно 1006.2 850.9
00 10.07 штиль 0 20 км в посл. час морось 9/0 1500 м
[As op]
+23.8 +17.5 68 +28 +29 душно 1004.8 849.9 0.0
03 10.07 штиль 0 2000 м 10/0 1500 м
[Ac As]
+21.4 +17.7 79 +26 +26 душно 1004.7 850.2
09 10.07 штиль 0 6000 м 5/0
[As op]
+18.6 +16.9 90 +19 +19 1005.5 850.6
12 10.07 штиль 0 6000 м 9/0
[Ac trans]
+17.4 +16.5 94 +17 +17 1006.6 850.9 +16.0 +25.4
15 10.07 штиль 0 20 км 9/0 1500 м
[Ac und]
+21.0 +17.9 82 +25 +28 комфорт 1008.2 852.0
18 10.07 штиль 0 20 км 8/8 600 м
[Sc diur, vesp]
+20.5 +18.7 89 +24 +29 комфорт 1008.0 851.9 2
21 10.07 ЮВ 2 20 км 8/3 1500 м
[Cu med, cong As trans Ci sp]
+29.4 +16.3 45 +33 +41 душно 1003.7 849.2
00 11.07 З 2 20 км в посл. час гроза 9/4 1000 м
[Cb calv Ac As Ci sp]
+27.2 +16.6 52 +31 +32 душно 999.3 846.9 +16.0 +32.0
03 11.07 штиль 0 6000 м слабая морось 10/0 1500 м
[As op]
+19.2 +18.3 95 +21 +21 комфорт 1001.8 849.1 4
06 11.07 штиль 0 2000 м в посл. час дождь 10/10 1000 м
[]
+19.3 +18.6 96 +21 +21 комфорт 1003.1 850.1 3
09 11.07 штиль 0 6000 м 10/0
[As op]
+18.4 +17.8 96 +19 +19 1003.4 849.3
12 11.07 штиль 0 6000 м 10/0
[As op]
+17.4 +17.3 99 +17 +17 1004.1 848.5 +16.0 +32.0
15 11.07 штиль 0 20 км 8/0 1500 м
[Ac trans Ci]
+22.4 +17.6 74 +27 +34 душно 1005.5 849.6
18 11.07 штиль 0 20 км 6/3 1170 м
[Cu hum Ac trans Ci sp]
+28.4 +16.4 48 +32 +47 душно 1003.8 849.1 +16.0 +29.0
21 11.07 штиль 0 19 км в посл. час гроза 9/3 150 м
[Cb calv As trans]
+18.2 +17.0 93 +19 +27 1001.6 847.7 24
00 12.07 штиль 0 20 км в посл. час морось {гроза} 10/1 600 м
[Cb calv Ac As]
+23.4 +17.7 70 +29 +30 душно 999.7 846.5 24
03 12.07 З 3 6000 м 10/0 1500 м
[Ac As]
+20.8 +15.5 72 +24 +24 комфорт 1001.5 848.2
06 12.07 штиль 0 2000 м 10/0 1500 м
[Ac As]
+19.0 +17.3 90 +20 +20 1004.2 849.7 +17.6 +31.0
12 12.07 штиль 0 6000 м 9/0
[Ac trans]
+18.2 +17.3 94 +19 +19 1004.8 849.2 +17.6 +31.0
15 12.07 штиль 0 20 км 5/0
[Ac trans]
+22.4 +17.9 76 +27 +34 душно 1006.7 850.7
18 12.07 штиль 0 20 км 8/4 1170 м
[Cu hum Ac trans Ci sp]
+26.4 +16.7 55 +30 +41 душно 1005.7 850.6 +17.6 +27.0
21 12.07 ЮЗ 1 19 км 9/4 150 м
[Cb calv Cs]
+28.6 +17.0 49 +32 +43 душно 1002.0 848.6
00 13.07 Ю 2 10 км в посл. час дождь 10/10 300 м
[Sc]
+19.2 +16.0 82 +21 +21 комфорт 1003.1 849.9 9
03 13.07 штиль 0 6000 м 10/10 300 м
[Sc]
+19.1 +16.8 87 +21 +21 комфорт 1003.9 850.5
09 13.07 штиль 0 6000 м ясно +16.6 +15.7 94 +16 +16 1007.0 851.1
12 13.07 штиль 0 6000 м 9/0
[Ac As]
+17.0 +16.1 94 +17 +17 1007.0 850.5 +16.0 +29.7
15 13.07 штиль 0 20 км 9/0 1500 м
[Ac lent Ci fib]
+19.4 +15.9 80 +21 +24 комфорт 1008.6 851.6
18 13.07 штиль 0 20 км 4/1 1170 м
[Cu hum Ci]
+28.0 +15.6 47 +31 +54 опасность
солнечного
удара
1006.9 851.0 +15.7 +29.0
21 13.07 штиль 0 20 км 6/5 1170 м
[Cu med, cong Ci sp]
+32.5 +15.5 36 +35 +47 душно 1001.7 848.4
00 14.07 З 2 15 км 9/9 600 м
[Sc diur, vesp]
+28.7 +14.2 41 +31 +31 жарко 998.6 847.3 +15.7 +34.1
09 14.07 штиль 0 6000 м 9/0
[Ac As]
+17.8 +17.2 96 +18 +18 1003.6 850.5
12 14.07 штиль 0 6000 м 9/0
[Ac As]
+17.4 +17.1 98 +17 +17 1005.0 850.2 +15.8 +34.1
15 14.07 штиль 0 20 км 8/0 1500 м
[Ac lent]
+20.0 +17.4 85 +23 +26 комфорт 1007.0 850.9
18 14.07 штиль 0 20 км 4/1 1170 м
[Cu hum Ac trans Ci fib]
+28.4 +17.4 51 +32 +53 опасность
солнечного
удара
1004.7 849.6 +15.8 +29.0
21 14.07 штиль 0 20 км 5/3 1500 м
[Cb calv Ac trans Ci sp]
+32.0 +15.7 37 +34 +49 душно 1000.5 847.5
00 15.07 ЮЗ 3 19 км в посл. час гроза 10/4 300 м
[Cb calv As trans]
+22.8 +19.2 80 +29 +30 очень
душно
998.5 847.1 3
12 15.07 штиль 0 6000 м 8/0 1500 м
[Ac lent]
+18.0 +17.7 98 +18 +18 1004.4 849.0 +18.0 +33.6
15 15.07 штиль 0 20 км 8/0 1500 м
[Ac und]
+21.2 +17.8 81 +25 +29 комфорт 1005.1 849.4
18 15.07 ЮЗ 1 20 км 9/5 1170 м
[Cu med, cong Ac trans Ci sp]
+27.6 +17.1 53 +32 +39 очень
душно
1004.0 849.3 +18.0 +28.2
21 15.07 З 3 н/о в посл. час гроза 9/4 700 м
[Cb calv As trans]
+23.4 +16.5 65 +28 +33 душно 1001.8 848.4
00 16.07 штиль 0 20 км в посл. час морось {гроза} 10/1 300 м
[Sc As trans]
+20.4 +17.5 83 +23 +25 комфорт 1001.3 848.2 0.1
09 16.07 штиль 0 6000 м слабый дождь 10/0
[As op]
+18.8 +18.2 96 +20 +20 1005.1 849.5 1

 

Местоположение метеостанции Nueva Casas Grandes (Мексика): широта 30.37 долгота -107.90 высота над уровнем моря 1487 м.

В архиве по умолчанию представлена погода в Nueva Casas Grandes за последнюю неделю. Архивные данные за месяц целиком и за предыдущие месяцы, начиная с января 2011 года, Вы можете получить, выбрав интересующий диапазон дат из раскрывающегося списка и нажав кнопку "Ввод!".


*Определитесь, кто Вы:
робот инопланетянин человек

Внимание! Время в таблицах - всемирное. Для получения местного времени необходимо прибавить поправку, которая в Nueva Casas Grandes равна -7 ч.

Смотрите также архив погоды в соседних городах и на ближайших метеорологических станциях:

Погода в Temosachic (Мексика) (158 км)
Погода в Pilares de Nacoz (Мексика) (171 км)
Погода в Chihuahua (Мексика) (256 км)
Погода в Chihuahua University (Мексика) (267 км)
Погода в Hermosillo la Magna (Мексика) (328 км)
Погода в Hermosillo (Мексика) (336 км)
Погода в Altar Son (Мексика) (379 км)
Погода в Ciudad Obregon (Мексика) (381 км)
Погода в Empalme (Мексика) (383 км)
Погода в Guaymas (Мексика) (398 км)

Пояснения к столбцам:

Ветер - указаны скорость ветра в м/с - средняя за 10 мин, порывы в срок и между сроками (в фигурных скобках) и направление, откуда дует ветер: С - северный, СВ - северо-восточный, В - восточный, ЮВ - юго-восточный, Ю - южный, ЮЗ - юго-западный, З - западный, СЗ - северо-западный.
Видимость - горизонтальная дальность видимости в метрах или километрах. При видимости от 1 до 10 км при отсутствии осадков обычно наблюдается дымка, при ухудшении видимости до 1 км и менее - туман. В сухую погоду видимость может ухудшаться дымом, пылью или мглою.
Явления - указаны атмосферные явления, наблюдавшиеся в срок или в последний час перед сроком; фигурными скобками обозначены явления, наблюдавшиеся между сроками (за 1-3 часа до срока); квадратными скобками обозначены град или гололедные отложения с указанием их диаметра в мм.
Облачность - указаны через наклонную черту общая и нижняя облачность в баллах и высота нижней границы облаков в метрах; квадратными скобками обозначены формы облаков: Ci - перистые, Cs - перисто-слоистые, Cc - перисто-кучевые, Ac - высококучевые, As - высокослоистые, Sc - слоисто-кучевые, Ns - слоисто-дождевые, Cu - кучевые, Cb - кучево-дождевые. Подробнее классификацию облаков см. в Атласе облаков (PDF).
T - Температура воздуха - температура, измеренная на высоте 2 м над землей.
Td - Температура точки росы - температура, при понижении до которой содержащийся в воздухе водяной пар достигнет насыщения.
f - Относительная влажность воздуха - влажноcть воздуха, измеренная на высоте 2 м над землей.
Te - Эффективная температура - температура, которую ощущает одетый по сезону человек в тени. Характеристика душности погоды. При расчете учитывается влияние влажности воздуха и скорости ветра на теплоощущения человека.
Tes - Эффективная температура на солнце - температура, которую ощущает человек, с поправкой на солнечный нагрев. Характеристика знойности погоды. Зависит от высоты солнца над горизонтом, облачности и скорости ветра. Ночью, в пасмурную погоду, а также при ветре 12 м/с и более поправка равна нулю.
P - Атмосферное давление - приведенное к уровню моря атмосферное давление.
Po - Атмосферное давление - измеренное на уровне метеостанции атмосферное давление.
Tmin - Минимальная температура - минимум температуры воздуха на высоте 2 м над землей.
Tmax - Максимальная температура - максимум температуры воздуха на высоте 2 м над землей.
R - Количество осадков - Количество выпавших осадков за период времени, мм. При наведении курсора мыши на число - период времени, за который выпало указанное количество осадков.
R24 - Количество осадков - Количество выпавших осадков за 24 часа, мм.
S - Снежный покров - Высота снежного покрова, см. При наведении курсора мыши на число - состояние снежного покрова и степень покрытия местности в баллах.